Hundvaag 1 weather for Jan 1996
Month no. 103
Obs.
Da.
Temp. Dew Point Precip. Wind
Speed
Wind gusts Cloud cover Press. Humidity Wind dir. Sunny OPT
01.01.1996 -7,0   0,0     10       1  
02.01.1996 -9,1   0,0     10       1  
03.01.1996 -2,4   0,0     0          
04.01.1996 -0,8   0,0     0          
05.01.1996 1,4   0,0     7       1  
06.01.1996 0,2   0,0     7       1  
07.01.1996 1,6   0,0     3          
08.01.1996 3,8   0,0     1          
09.01.1996 6,4   0,0     8       1  
10.01.1996 4,7   0,0     9       1  
11.01.1996 4,3   1,0     0          
12.01.1996 5,2   2,8     0          
13.01.1996 6,2   0,0     1          
14.01.1996 8,1   0,0     0          
15.01.1996 3,7   1,3     10       1  
16.01.1996 2,5   0,0     0          
17.01.1996 4,1   0,0     0          
18.01.1996 6,6   3,2     0          
19.01.1996 5,1   0,0     3          
20.01.1996 2,0   0,0     5          
21.01.1996 -3,7   0,0     7       1  
22.01.1996 -4,1   0,0     2          
23.01.1996 -2,8   0,0     10       1  
24.01.1996 -6,2   0,0     10       1  
25.01.1996 -4,8   0,0     10       1  
26.01.1996 -5,2   0,0     1          
27.01.1996 -6,0   0,0     10       1  
28.01.1996 -4,3   0,0     1       1  
29.01.1996 -4,5   0,0     10       1  
30.01.1996 2,2   0,0     4          
31.01.1996 -5,4   0,0     10       1  
Avrg/Sum 0,1   8,3     4,8       15